LEMUR 2 ANDIS

导读

LEMUR 2 ANDIS是美国Spire Global公司研发的LEMUR-2系列立方星,于2017年7月14日发射升空,运行于近地轨道。作为低地球轨道多用途商用卫星,它搭载GNSS反射测量设备与无线电掩星载荷,可获取海面风速、浪高及大气温湿度数据,服务气象预报与气候研究,同时还具备海上船舶监测与GPS干扰检测能力,是小卫星商业化应用的典型代表。

基本信息
目录编号:
42838
目录名称:
LEMUR 2 ANDIS
国际标识:
2017-042P
轨道中心:
EARTH
卫星名称:
LEMUR 2 ANDIS
卫星全名:
--
卫星状态:
在轨 (已飞行3339 天)
发射日期:
2017-07-14 UTC
国别 :
美国 (US)
星等 :
--
轨道信息
数据来源 国际轨道数据
星历时间: 2026-09-03T08:21:47+0800
1天前
查看轨道信息
半长轴: 6830.733km
偏心率: 0.0009049
轨道倾角: 97.371°
近地点辐角 85.430°
升交点赤经 66.920°
平近点角 274.798°
近地点: 446.414km
远地点: 458.778km
周期: 93.640分钟
每日圈数: 15.37807
详细信息
使用方式:
暂无
2D轨道图
3D轨道图
轨道高度分析图
轨道倾角分析图
轨道综合分析图
查看轨道综合分析图
交会数据列表
事件ID 空间交会对象 最接近时刻(TCA) 交会距离 交会风险概率(CRP) 交会风险指数(CRI) 操作
CDM_260904-210304-283805-227822
2026-09-04T
21:03:02+0000
2.456 km
极远距离
1.259812E-6 低风险 0.37